Location: Copper Breaks State Park
(34.1132°N, 99.7492°W)
Time: 09:04:18
(UTC-05:00)

Daily predictions for brighter satellites

Satellite Brightness Start Highest point End
(mag) Time Altitude Azimuth Time Altitude Azimuth Time Altitude Azimuth
CZ-3B DEB 4.5 20:05:22 10° WSW 20:18:09 47° NW 20:24:16 10° NNE
Meteor 1-24 Rocket 3.7 20:13:35 10° N 20:19:10 72° E 20:24:55 10° SSE
Delta 128 4.4 20:15:41 10° WSW 20:20:06 39° S 20:24:16 10° ESE
Cosmos 1271 Rocket 4.4 20:20:29 10° SE 20:22:48 15° E 20:25:08 10° NE
Cosmos 1758 3.9 20:20:24 10° SSE 20:24:01 35° E 20:27:40 10° NNE
COSMOS 2487 4.3 20:22:10 10° NNE 20:24:15 15° ENE 20:26:20 10° ESE
H-2A R/B 3.3 20:20:41 10° SW 20:24:37 51° SSE 20:45:56 10° E
Cosmos 2123 Rocket 4.0 20:21:14 10° N 20:27:31 63° E 20:33:41 10° SSE
Cosmos 372 Rocket 4.3 20:22:51 10° S 20:27:35 40° ESE 20:32:23 10° NNE
Cosmos 1818 4.1 20:24:04 10° NNW 20:29:11 41° NE 20:34:16 10° SE
Cosmos 1953 2.8 20:26:33 10° SSE 20:30:20 39° E 20:34:08 10° NNE
Lacrosse 5 4.1 20:27:33 10° W 20:31:42 25° NW 20:35:52 10° NNE
Cosmos 1766 3.9 20:28:37 10° SSW 20:32:27 62° W 20:36:18 10° N
Cosmos 1674 4.2 20:31:12 10° NNE 20:33:47 17° ENE 20:36:15 11° ESE
Resurs 1-3 4.4 20:32:02 10° SE 20:35:54 31° ENE 20:39:47 10° N
USA 215 4.1 20:34:40 10° ENE 20:39:56 26° ESE 20:45:09 10° S
Meteor 1-4 Rocket 2.4 20:37:36 10° S 20:41:00 60° E 20:44:26 10° NNE
Delta 168 4.4 20:42:11 10° WSW 20:45:47 23° S 20:48:11 13° SE
Helios 1B rocket 3.4 20:42:58 10° NE 20:46:26 26° E 20:49:53 10° SSE
Spot 2 Rocket 3.6 20:47:11 10° SSE 20:52:10 57° ENE 20:57:10 10° N
Cosmos 2098 Rocket 4.4 20:45:35 10° S 20:52:43 72° E 21:00:18 10° N
Lacrosse 5 rocket 3.1 20:50:19 10° N 20:52:44 16° NE 20:54:09 13° ENE
Cosmos 1544 3.4 20:50:18 10° SSW 20:53:54 68° W 20:57:34 10° N
In-Cosmos 22 4.1 20:49:02 10° N 20:54:21 84° W 20:59:37 10° S
SWAS 4.4 20:50:13 10° SSW 20:54:29 81° ESE 20:58:48 10° NNE
CZ-2D R/B 3.5 20:54:01 10° SSE 20:57:43 46° ENE 21:01:27 10° N
Cosmos 1459 Rocket 4.3 20:52:29 10° SSE 20:58:17 42° E 21:04:02 10° NNE
Cosmos 1076 Rocket 3.4 20:54:38 10° N 20:58:50 60° E 21:03:01 10° SSE
Cosmos 1805 4.0 20:57:22 10° SSW 21:01:11 55° W 21:05:01 10° N
Cosmos 1867 4.3 20:56:49 10° SW 21:02:09 55° WNW 21:07:31 10° NNE
Timation 2 Rocket 4.3 20:56:23 10° N 21:02:19 44° ENE 21:06:20 19° SE
FENGYUN 3A 4.0 20:58:17 10° S 21:03:40 71° WSW 21:09:03 10° NNW
Okean 3 Rocket 3.8 20:59:17 10° NNW 21:03:40 71° W 21:08:05 10° S
Cosmos 1447 Rocket 4.4 20:58:26 10° N 21:04:33 69° E 21:10:40 10° SSE
Helios 1A 3.6 21:02:56 22° ESE 21:04:55 35° ENE 21:08:44 10° N
Abrixas 2.2 21:03:23 10° NW 21:06:12 77° NE 21:06:58 43° ESE
Cosmos 2173 Rocket 4.2 21:00:42 10° SSE 21:06:34 48° E 21:12:31 10° NNE
ALOS 3.0 21:02:13 10° S 21:06:47 56° W 21:11:23 10° NNW
Tiangong 1 3.3 21:08:10 10° W 21:10:16 18° SW 21:11:51 13° S
Envisat 3.8 21:08:43 24° ESE 21:10:28 30° ENE 21:14:51 10° N
Cosmos 1833 Rocket 2.7 21:07:16 10° NNW 21:12:49 60° ENE 21:16:34 21° SE
PSLV R/B 3.6 21:12:29 10° SW 21:15:22 40° SSE 21:15:22 40° SSE
Meteor 1-21 Rocket 4.3 21:10:40 10° N 21:16:33 84° E 21:22:28 10° S
Cosmos 1733 3.1 21:13:30 10° S 21:17:20 71° E 21:21:12 10° NNE
Cosmos 1470 2.6 21:15:20 10° S 21:19:17 80° E 21:23:16 10° N
GPS 2-05 Rocket1 3.0 21:16:30 10° W 21:20:02 67° N 21:21:02 43° ENE
SeaSat 1 2.6 21:15:26 10° SSE 21:20:20 72° WSW 21:25:17 10° NNW
Spot 1 4.3 21:18:18 24° SE 21:21:03 60° ENE 21:25:53 10° N
ATLAS 5 CENTAUR R/B 2.6 21:17:03 10° SW 21:21:33 51° NW 21:26:24 10° NNE
ERS-1 Rocket 4.4 21:23:15 21° ENE 21:23:15 21° ENE 21:26:31 10° NNE
Cosmos-2242 2.9 21:19:12 10° S 21:23:26 86° W 21:27:42 10° N
Cosmos 1766 Rocket 3.5 21:21:26 10° N 21:25:56 90° NE 21:29:35 15° S
Geosat 4.0 21:21:45 10° NNE 21:26:48 81° WNW 21:31:48 10° SSW
GP-B 3.0 21:22:54 10° S 21:27:20 89° WSW 21:31:47 10° N
Cosmos 1048 Rocket 4.0 21:22:53 10° NNW 21:28:01 79° WSW 21:32:00 17° S
USA 186 3.5 21:29:39 16° NNW 21:29:39 16° NNW 21:30:16 10° NNW
OAO 2 Rocket 3.5 21:23:46 10° WSW 21:28:50 55° SSE 21:30:17 41° ESE
H-2A R/B 4.3 21:28:47 10° SSW 21:32:22 37° W 21:36:03 10° NNW
CZ-4B DEB 4.1 21:33:45 28° NNE 21:33:45 28° NNE 21:35:26 10° N
CZ-3 Stage 3 3.6 20:49:30 10° W 21:33:47 77° S 21:37:49 33° ESE
Resurs 01 Rocket 2.9 21:32:41 10° SSW 21:36:48 39° W 21:40:58 10° NNW
Cosmos 1340 Rocket 2.6 21:33:53 10° N 21:37:54 75° E 21:38:09 71° ESE
Cosmos 2016 Rocket 3.9 21:32:33 10° S 21:38:42 64° E 21:44:47 10° NNE
ISS -1.0 21:41:13 10° WNW 21:43:28 17° NNW 21:45:27 11° N
Cosmos 1725 Rocket 4.1 21:47:24 47° ESE 21:48:26 51° E 21:54:24 10° NNE
Meteor 1-29 3.7 21:45:54 10° N 21:49:18 53° WNW 21:50:31 34° SW
SAR-Lupe-4 4.5 21:50:50 42° SW 21:51:23 46° W 21:54:51 10° NNW
Cosmos 2082 Rocket 2.9 21:47:38 10° NNW 21:53:08 52° WSW 21:56:37 22° S
Cosmos 1743 Rocket 3.5 21:52:37 10° N 21:56:52 82° NNW 21:56:52 82° NNW
Cosmos 1500 Rocket 4.4 21:53:45 10° N 21:56:35 39° NNE 21:56:35 39° NNE
H-II Stage 2 4.0 21:56:16 10° WSW 21:56:27 12° WSW 21:56:27 12° WSW
Meteor 1-16 Rocket 4.2 21:55:18 10° S 22:01:07 88° W 22:07:05 10° N
SL-08 R/B 4.4 21:56:15 17° S 22:01:16 83° E 22:07:42 10° N
Meteor 1-11 4.3 21:59:18 10° N 22:04:10 57° NE 22:04:10 57° NE
Cosmos 2251 Rocket 3.7 22:04:34 10° NNW 22:09:13 62° NNE 22:09:13 62° NNE
BREEZE-M DEB (TANK) 4.4 22:10:52 10° W 22:14:43 46° N 22:27:43 10° ENE
Tsikada Rocket 4.1 22:08:32 10° N 22:14:02 59° NE 22:14:02 59° NE
Aurora 2 Rocket 4.4 22:10:26 10° WSW 22:15:38 31° SSW 22:15:38 31° SSW
Cosmos 1939 Rocket 4.2 22:18:51 39° NW 22:18:51 39° NW 22:21:45 10° NNW
USA 215 3.4 22:16:41 10° NE 22:23:10 71° NW 22:29:39 10° SW
Lacrosse 5 rocket 3.7 22:28:32 10° NW 22:29:53 20° WNW 22:29:53 20° WNW
Cosmos 2369 Rocket 4.1 22:43:24 20° NNE 22:43:24 20° NNE 22:45:02 10° NNE
H-2A R/B 4.4 23:11:38 17° N 23:11:38 17° N 23:12:45 10° N
